DELTA 1 DEB, 12527

Orbit data source: Space-Track

DELTA 1 DEB, 12527 is space debris in SSO originally from a launch on Thu, 29 Jul 1976 UTC launched from the Air Force Western Test Range (AFWTR). Debris objects in space refer to the collection of defunct objects orbiting the Earth. Examples of debris include non-operational satellites, rocket bodies, and fragments generated from explosions, collisions, or faulty payload assembly.

Loading next visibility...
Identifier
12527, 1976-077DG
Orbit
SSO
Country
Flag of USUS
Related business
Manufacturer
Unknown
Mission
Spacecraft
Bus & Motor
Unknown
Mass
Unknown
Launch date (UTC)
1976-07-29 (49 years ago)
Launch vehicle
Unknown
Launch site
Air Force Western Test Range (AFWTR)
Object type
Payload
Rocket body
Debris
Shape & HBR
Unknown shape, 0.1 m
Radar Cross Section
Medium (>0.1 m² and <1 m²)

Expand to show TLE details & history
Last TLE update: 12 hours ago

TLE from 12 hours ago
0 DELTA 1 DEB
1 12527U 76077DG  25352.89296019 -.00000007  00000-0  29213-3 0  9993
2 12527 102.1312 319.4788 0039028   9.1109  15.9695 12.38085850129648
Epoch: 2025-12-18T21:25Z
TLE epoch observation values (Epoch: 2025-12-18T21:25:51.760Z)
Latitude
24.6305°
Longitude
-95.35672°
Altitude
1,487.768 km
Speed
7.135 km/s
True Right ascension
20h 55m 24s
True Declination
24° 30' 45"
Sunlit
Object was in daylight at epoch
Visualization orbit readout
Latitude
Unknown
Longitude
Unknown
Altitude
Unknown
Speed
Unknown
Apparent Right ascension
Unknown
Apparent Declination
Unknown
Sunlit
N/A
Visualization observer readout
Local Sidereal Time
07:49:49
Azimuth
Unknown
Elevation
Unknown
Doppler factor
Unknown
Orbital elements
Apogee altitude
1,543.108 km
Perigee altitude
1,481.518 km
Semi-major axis
7,890.45 km
Eccentricity
0.0039
Inclination
102.1312°
RAAN
319.4788°
Arg. of periapsis
9.1109°
True anomaly
16.09312°
Mean anomaly
15.9695°
Eccentric anomaly
16.03125°
Mean motion
3.09664 °/min
Orbital period
116.26 mins
BSTAR
0.00029213
Loading maneuver chart data...
Computing Atmospheric mass density...
Loading historical data...
Loading historical data...
Loading historical data...
Loading historical data...
Loading historical data...
Loading historical data...
Loading historical data...

Documentation

Showing up to 5 results
|